Weather reports worldwide

Advertisment
UFS TW Ems, Germany (10004): temperature & dewpoint: 24.09.2020 23:00:00 - 30.09.2020 23:00:00 (CEST)UFS TW Ems, Germany (10004): wind speed & gusts: 24.09.2020 23:00:00 - 30.09.2020 23:00:00 (CEST)UFS TW Ems, Germany (10004): wind direction: 24.09.2020 23:00:00 - 30.09.2020 23:00:00 (CEST)UFS TW Ems, Germany (10004): reduced air pressure: 24.09.2020 23:00:00 - 30.09.2020 23:00:00 (CEST)UFS TW Ems, Germany (10004): visibility: 24.09.2020 23:00:00 - 30.09.2020 23:00:00 (CEST)UFS TW Ems, Germany (10004): sunshine duration: 24.09.2020 23:00:00 - 30.09.2020 23:00:00 (CEST)
Date & Time tt [°C] td [°C] ff [km/h] ff [kn] fx [km/h] fx [kn] dd ppp [hPa] vv [km] sd [min]
30.09.2020 23:00:00 17,5 15,3 32 18 - - SSE 1009,2 10 0
30.09.2020 22:00:00 17,2 14,9 32 18 - - SSE 1009,7 10 0
30.09.2020 21:00:00 17,1 14,6 36 19 47 25 SE 1009,9 10 0
30.09.2020 20:00:00 17,0 14,4 36 19 - - SE 1010,5 10 0
30.09.2020 19:00:00 16,4 15,2 29 16 - - SE 1010,7 10 0
30.09.2020 18:00:00 16,5 14,8 25 14 - - SSE 1011,0 10 0
30.09.2020 17:00:00 16,3 14,2 32 18 - - S 1011,2 10 24
30.09.2020 16:00:00 16,3 14,0 40 21 47 25 SSE 1011,5 10 18
30.09.2020 15:00:00 16,1 13,6 32 18 - - S 1012,1 10 0
30.09.2020 14:00:00 15,7 13,1 32 18 - - S 1012,6 10 42
30.09.2020 13:00:00 15,1 12,8 32 18 - - S 1013,1 10 54
30.09.2020 12:00:00 - - - - - - - - - -
30.09.2020 11:00:00 15,2 13,1 36 19 - - S 1013,1 0,9 30
30.09.2020 10:00:00 15,4 13,5 32 18 - - S 1013,2 10 36
30.09.2020 09:00:00 15,5 13,3 29 16 - - S 1013,1 10 6
30.09.2020 08:00:00 15,7 13,8 29 16 - - S 1013,1 10 0
30.09.2020 07:00:00 15,7 14,5 32 18 - - S 1013,2 7 0
30.09.2020 06:00:00 15,8 13,5 29 16 - - SSE 1013,4 10 0
30.09.2020 05:00:00 15,7 13,7 22 12 - - SSE 1013,7 10 0
30.09.2020 04:00:00 - - - - - - - - - -
30.09.2020 03:00:00 - - - - - - - - - -
30.09.2020 02:00:00 - - - - - - - - - -
30.09.2020 01:00:00 16,0 13,1 11 6 - - SW 1015,2 10 0
30.09.2020 00:00:00 15,9 12,6 7 4 - - S 1015,5 10 0
29.09.2020 23:00:00 15,8 12,3 7 4 - - SSW 1015,7 10 0
29.09.2020 22:00:00 15,7 12,5 11 6 - - WSW 1015,7 10 0
29.09.2020 21:00:00 15,8 12,6 11 6 - - WSW 1015,4 10 0
29.09.2020 20:00:00 15,8 13,1 11 6 - - WNW 1015,1 10 0
29.09.2020 19:00:00 15,5 12,6 14 8 - - W 1015,1 10 0
29.09.2020 18:00:00 15,5 12,5 22 12 - - W 1014,7 10 0
29.09.2020 17:00:00 - - - - - - - - - -
29.09.2020 16:00:00 16,0 13,8 25 14 - - WNW 1014,0 10 12
29.09.2020 15:00:00 15,7 14,5 22 12 - - WNW 1013,7 10 0
29.09.2020 14:00:00 15,8 15,2 25 14 - - WNW 1013,4 10 0
29.09.2020 13:00:00 15,6 15,6 29 16 - - NW 1013,2 2,6 0
29.09.2020 12:00:00 - - - - - - - - - -
29.09.2020 11:00:00 15,0 14,8 25 14 - - SSE - 7 -
29.09.2020 10:00:00 15,0 15,0 25 14 - - SSE 1012,1 4,2 0
29.09.2020 09:00:00 15,0 14,8 25 14 - - SSE 1011,7 2,1 0
29.09.2020 08:00:00 14,9 14,8 29 16 - - S 1011,2 7 0
29.09.2020 07:00:00 14,8 14,6 29 16 - - S 1010,9 10 0
29.09.2020 06:00:00 15,0 14,3 25 14 - - S 1011,0 10 0
29.09.2020 05:00:00 - - - - - - - - - -
29.09.2020 04:00:00 14,8 14,7 29 16 - - S 1011,1 9 0
29.09.2020 03:00:00 14,7 14,6 29 16 - - SSE 1011,0 10 0
29.09.2020 02:00:00 14,9 14,7 29 16 - - SSE 1010,6 4,6 0
29.09.2020 01:00:00 15,2 15,1 25 14 29 16 SSE 1010,7 10 0
29.09.2020 00:00:00 15,4 15,2 25 14 - - SSE 1010,6 7 0
28.09.2020 23:00:00 15,5 15,3 25 14 - - SSE 1010,4 2,1 0
28.09.2020 22:00:00 15,4 15,4 18 10 - - S 1010,1 6 0
28.09.2020 21:00:00 15,6 15,6 22 12 - - S 1009,9 2,2 0
28.09.2020 20:00:00 16,0 15,9 18 10 - - S 1009,4 5 0
28.09.2020 19:00:00 16,3 16,1 11 6 - - S 1009,0 5 0
28.09.2020 18:00:00 16,6 16,6 11 6 - - SSW 1008,7 6 0
28.09.2020 17:00:00 16,6 16,1 7 4 - - S 1008,3 6 0
28.09.2020 16:00:00 16,9 16,1 7 4 - - SE 1008,2 10 0
28.09.2020 15:00:00 17,0 15,8 14 8 - - ENE 1008,4 10 0
28.09.2020 14:00:00 17,1 16,0 11 6 - - NE 1008,4 10 0
28.09.2020 13:00:00 17,0 16,0 14 8 - - ENE 1008,3 10 0
28.09.2020 12:00:00 17,0 16,0 14 8 - - NE 1008,3 10 0
28.09.2020 11:00:00 17,1 16,0 18 10 - - NE 1008,1 10 0
28.09.2020 10:00:00 17,1 15,9 22 12 - - NE 1007,9 10 0
28.09.2020 09:00:00 17,0 15,8 25 14 - - NE 1007,5 10 0
28.09.2020 08:00:00 17,1 16,0 22 12 - - NE 1007,2 10 0
28.09.2020 07:00:00 17,0 16,0 25 14 - - NE 1007,0 10 0
28.09.2020 06:00:00 17,1 16,3 29 16 - - ENE 1006,9 10 0
28.09.2020 05:00:00 17,2 16,3 22 12 - - NE 1007,0 10 0
28.09.2020 04:00:00 17,2 16,3 29 16 - - NE 1007,1 10 0
28.09.2020 03:00:00 17,3 16,2 29 16 - - NE 1007,2 10 0
28.09.2020 02:00:00 17,6 16,5 29 16 - - NE 1007,1 10 0
28.09.2020 01:00:00 17,8 16,8 29 16 - - NNE 1007,3 10 0
28.09.2020 00:00:00 17,9 17,0 25 14 - - NNE 1007,2 10 0
27.09.2020 23:00:00 17,9 17,0 29 16 - - NNE 1007,2 9 0
27.09.2020 22:00:00 - - - - - - - - - -
27.09.2020 21:00:00 17,5 16,8 29 16 - - N 1006,8 10 0
27.09.2020 20:00:00 18,0 16,2 36 19 - - SSW 998,9 10 0
27.09.2020 19:00:00 17,5 16,9 29 16 - - N 1006,3 10 0
27.09.2020 18:00:00 17,2 16,7 22 12 - - NNE 1005,8 10 0
27.09.2020 17:00:00 16,2 15,9 14 8 - - NNE 1005,5 10 0
27.09.2020 16:00:00 15,7 15,7 7 4 - - SSE 1005,4 9 0
27.09.2020 15:00:00 15,4 15,2 11 6 - - ESE 1005,1 10 0
27.09.2020 14:00:00 16,5 16,4 29 16 - - NE 1004,8 2,6 0
27.09.2020 13:00:00 17,0 16,4 29 16 - - NNE 1004,4 4,0 0
27.09.2020 12:00:00 16,2 15,0 14 8 - - ENE 1004,4 10 0
27.09.2020 11:00:00 16,3 15,0 18 10 - - ENE 1003,9 10 0
27.09.2020 10:00:00 17,5 16,4 36 19 50 27 NE 1003,4 10 0
27.09.2020 09:00:00 17,3 16,4 40 21 54 29 NNE 1002,6 10 0
27.09.2020 08:00:00 17,3 16,1 43 23 - - NNE 1001,8 10 0
27.09.2020 07:00:00 17,3 16,2 47 25 61 33 NNE 1001,1 10 0
27.09.2020 06:00:00 17,3 16,2 50 27 65 35 NNE 1000,6 10 0
27.09.2020 05:00:00 17,1 16,0 50 27 - - NNE 999,9 10 0
27.09.2020 04:00:00 16,9 15,8 54 29 72 39 NNE 999,6 10 0
27.09.2020 03:00:00 16,6 15,2 61 33 79 43 NNE 999,3 9 0
27.09.2020 02:00:00 16,3 14,7 65 35 - - N 998,9 10 0
27.09.2020 01:00:00 16,2 14,1 65 35 79 43 N 998,7 7 0
27.09.2020 00:00:00 16,1 13,0 61 33 76 41 NNE 998,9 10 0
26.09.2020 23:00:00 15,5 14,3 58 31 - - NNE 998,9 5 0
26.09.2020 22:00:00 15,5 14,6 58 31 72 39 N 999,5 9 0
26.09.2020 21:00:00 14,7 13,0 58 31 68 37 N 1000,2 9 0
26.09.2020 20:00:00 14,1 12,3 54 29 - - N 1000,6 10 0
26.09.2020 19:00:00 14,3 12,2 43 23 68 37 N 1000,8 10 0
26.09.2020 18:00:00 14,6 11,9 47 25 58 31 N 1000,4 10 0
26.09.2020 17:00:00 14,1 12,4 50 27 - - N 1000,5 7 0
26.09.2020 16:00:00 15,4 12,5 40 21 50 27 N 1000,3 10 0
26.09.2020 15:00:00 - 12,8 47 25 54 29 NNE 1000,1 10 0
26.09.2020 14:00:00 15,8 11,5 22 12 - - N 999,9 10 0
26.09.2020 13:00:00 15,6 11,1 18 10 - - N 999,6 10 48
26.09.2020 12:00:00 15,8 11,1 18 10 - - N 999,1 10 0
26.09.2020 11:00:00 15,5 10,7 14 8 - - NNW 998,7 10 0
26.09.2020 10:00:00 15,3 10,1 14 8 - - N 998,1 10 0
26.09.2020 09:00:00 15,0 9,1 14 8 - - N 997,7 10 0
26.09.2020 08:00:00 14,9 8,3 14 8 - - NNE 997,1 10 0
26.09.2020 07:00:00 14,6 6,9 14 8 - - NNE 996,7 10 0
26.09.2020 06:00:00 14,7 7,4 14 8 - - N 996,6 10 0
26.09.2020 05:00:00 14,6 7,8 14 8 - - NNE 996,4 10 0
26.09.2020 04:00:00 14,7 8,3 11 6 - - NE 996,4 10 0
26.09.2020 03:00:00 14,4 7,3 11 6 - - NE 996,4 10 0
26.09.2020 02:00:00 - - - - - - - - - -
26.09.2020 01:00:00 14,3 7,9 14 8 - - E 996,0 10 0
26.09.2020 00:00:00 - - - - - - - - - -
25.09.2020 23:00:00 14,3 7,9 18 10 - - ESE 995,8 10 0
25.09.2020 22:00:00 14,2 7,9 18 10 - - ESE 995,7 10 0
25.09.2020 21:00:00 14,2 8,2 18 10 - - SE 995,5 10 0
25.09.2020 20:00:00 14,1 8,0 22 12 - - SE 994,9 10 0
25.09.2020 19:00:00 - - - - - - - - - -
25.09.2020 18:00:00 13,7 7,6 25 14 - - SSE 994,4 10 18
25.09.2020 17:00:00 13,8 7,9 29 16 - - SSE 994,4 10 30
25.09.2020 16:00:00 13,4 7,5 29 16 - - SSE 993,9 10 36
25.09.2020 15:00:00 13,1 7,5 32 18 50 27 S 993,8 10 30
25.09.2020 14:00:00 13,1 9,2 32 18 - - S 994,3 10 36
25.09.2020 13:00:00 12,7 8,6 32 18 47 25 S 993,9 10 48
25.09.2020 12:00:00 12,7 9,0 32 18 47 25 S 993,6 10 48
25.09.2020 11:00:00 12,9 8,9 40 21 - - S 993,3 10 42
25.09.2020 10:00:00 13,1 9,3 47 25 58 31 S 992,9 10 12
25.09.2020 09:00:00 13,6 10,3 43 23 54 29 S 992,3 10 0
25.09.2020 08:00:00 14,0 12,3 32 18 - - S 992,1 5 0
25.09.2020 07:00:00 14,3 12,2 36 19 - - S 992,5 6 0
25.09.2020 06:00:00 14,2 12,0 36 19 - - S 992,6 8 0
25.09.2020 05:00:00 14,6 11,3 18 10 - - ESE 992,8 10 0
25.09.2020 04:00:00 14,8 11,6 29 16 - - ESE 994,0 10 0
25.09.2020 03:00:00 15,3 11,3 25 14 - - SE 994,6 10 0
25.09.2020 02:00:00 15,1 10,1 32 18 - - SE 995,3 10 0
25.09.2020 01:00:00 16,2 11,0 29 16 - - ESE 996,4 10 0
25.09.2020 00:00:00 15,7 11,7 18 10 - - ESE 997,0 10 0
24.09.2020 23:00:00 14,7 11,4 14 8 - - SSW 997,7 10 0

tt = temperature
td = dewpoint
ff = wind speed
fx = gusts
dd = wind direction
ppp = reduced air pressure
vv = visibility
sd = sunshine duration

Next stations